{"data":{"norad_id":47291,"intl_designator":"2020-100AK","name":"ONEWEB-0145","alt_names":[],"object_type":"PAYLOAD","status":"ACTIVE","operator":null,"country":"UK","launch_date":"2020-12-18","launch_site_code":"VOSTO","launch_vehicle":null,"mission":null,"orbit_class":"UNKNOWN","rcs_meters":null,"size_class":null,"mass_kg":null,"dimensions":null,"purposes":["comms"],"wikipedia_slug":null,"has_3d_model":false,"image_url":null,"decayed_at":null,"tle_current":{"epoch":"2026-05-25T02:02:17.671200Z","epoch_age_seconds":74590,"freshness":"FRESH","line1":"1 47291U 20100AK  26145.08492675 -.00000236  00000+0 -69057-3 0  9997","line2":"2 47291  87.8953 355.2651 0001724  88.2147 271.9179 13.12442975261739","mean_motion":13.12442975,"eccentricity":0.0001724,"inclination_deg":87.8953,"raan_deg":355.2651,"arg_perigee_deg":88.2147,"mean_anomaly_deg":271.9179,"bstar":-0.00069057,"rev_number":26173,"period_min":109.71905274589,"perigee_km":1212.4145507257,"apogee_km":1215.0322241873,"semimajor_km":7591.8603874565,"source":"CELESTRAK","updated_at":"2026-05-25T13:38:22.386561Z"}}}